386P/PanSTARRS (2020)

Japanese version
Home page
Updated on June 14, 2021

---------------------------------------------------------------------

* Profile

* Orbital Elements

Epoch 2020 Aug. 19.0 TT = JDT 2459080.5
T 2020 Aug. 19.38354 TT                                 Rudenko
q   2.3682352            (2000.0)            P               Q
n   0.12055463     Peri.  353.25954     -0.62142087     -0.76109888
a   4.0583247      Node   134.94740     +0.73053336     -0.64862840
e   0.4164500      Incl.   15.22934     +0.28312031     +0.00311514
P   8.18
From 118 observations 2004 Feb. 14-2021 Apr. 19, mean residual 0".6.

* Magnitudes Graph

        m1 = 14.0 + 5 log d + 10.0 log r

---------------------------------------------------------------------

The orbital elements are published on M.P.E.C. 2021-J28.
The magnitudes graphs are made with Comet for Windows.

---------------------------------------------------------------------

Copyright(C) Seiichi Yoshida (comet@aerith.net). All rights reserved.